#timestamp,LO_Frequency,Hit,StdDev 
1672419615.1,286046995.4,Y
1672419616.0,286046995.4,P
1672419635.8,286046998.0,N
1672419655.7,286046997.4,N
1672419675.5,286046999.6,N
1672419695.3,286046998.1,N
1672419715.2,286047001.1,N
1672419735.0,286047001.2,N
1672419735.9,286047001.2,N
1672419755.8,286047001.1,N
1672419775.6,286047000.4,N
1672419795.4,286046998.7,N
1672419815.3,286046998.2,N
1672419835.1,286047000.3,N
1672419855.9,286047000.6,N
1672419875.7,286047000.3,N
1672419895.5,286047000.4,N
1672419915.4,286047002.3,N
1672419935.2,286047000.3,N
1672419955.0,286047001.0,N
1672419956.0,286047001.0,N
1672419975.8,286047000.2,N
1672419995.6,286047001.9,N
1672420015.5,286047002.2,N
1672420035.3,286047000.6,N
1672420055.1,286047002.0,N
1672420075.9,286047002.4,N
1672420095.7,286047002.7,N
1672420115.6,286047001.6,N
1672420135.4,286047003.9,N
1672420155.3,286047000.0,N
1672420175.1,286046998.6,N
1672420176.0,286046998.6,N
1672420195.8,286047000.3,N
1672420215.7,286047002.5,N
1672420235.5,286046998.1,N
1672420255.4,286047001.2,N
1672420275.2,286046998.3,N
1672420295.0,286046998.9,N
1672420295.9,286046998.9,N
1672420315.8,286047001.0,N
1672420335.6,286046998.1,N
1672420355.5,286046999.4,N
1672420375.3,286046998.6,N
1672420395.1,286046998.7,N
1672420415.9,286046998.3,N
1672420435.7,286046998.4,N
1672420455.6,286047001.0,N
1672420475.4,286047000.4,N
1672420495.2,286046999.9,N
1672420515.1,286047000.6,N
1672420516.0,286047000.6,N
1672420535.8,286047002.7,N
1672420555.7,286047002.2,N
1672420575.5,286047002.6,N
1672420595.3,286047000.1,N
1672420615.2,286047000.0,N
1672420635.9,286047000.5,N
1672420655.7,286047000.4,N
1672420675.6,286047000.3,N
1672420695.4,286047001.8,N
1672420715.3,286047002.0,N
1672420735.1,286047001.0,N
1672420736.0,286047001.0,N
1672420755.8,286046998.7,N
1672420775.7,286047000.0,N
1672420795.5,286047000.9,N
1672420815.3,286047002.7,N
1672420835.2,286046999.8,N
1672420855.0,286047000.4,N
1672420855.9,286047000.4,N
1672420875.8,286047001.2,N
1672420895.6,286047000.6,N
1672420915.4,286046999.9,N
1672420935.3,286047000.7,N
1672420955.1,286046998.2,N
1672420975.8,286047000.3,N
1672420995.7,286047002.2,N
1672421015.5,286047000.0,N
1672421035.4,286047000.8,N
1672421055.2,286046998.5,N
1672421075.0,286046998.2,N
1672421075.9,286046998.2,N
1672421095.8,286046998.5,N
1672421115.6,286046996.6,N
1672421135.4,286046999.1,N
1672421155.3,286046998.3,N
1672421175.1,286046999.0,N
1672421195.9,286046998.7,N
1672421215.7,286046998.7,N
1672421235.5,286046998.7,N
1672421255.4,286047001.1,N
1672421275.2,286046998.2,N
1672421295.0,286047000.8,N
1672421296.0,286047000.8,N
1672421315.8,286047000.5,N
1672421335.6,286047000.0,N
1672421355.5,286047000.3,N
1672421375.3,286046998.3,N
1672421395.1,286046998.2,N
1672421415.9,286046999.6,N
1672421435.7,286046996.8,N
1672421455.6,286046996.8,N
1672421475.4,286046996.7,N
1672421495.2,286046997.4,N
1672421515.1,286046995.0,Y
1672421516.0,286046995.0,P
1672421535.8,286046995.3,N
1672421555.6,286046998.9,N
1672421575.5,286047001.0,N
1672421595.3,286046999.4,N
1672421615.2,286047001.1,N
1672421635.9,286047000.8,N
1672421655.7,286047000.5,N
1672421675.6,286046999.7,N
1672421695.4,286047000.1,N
1672421715.2,286047000.1,N
1672421735.1,286047000.9,N
1672421736.0,286047000.9,N
1672421755.8,286046999.9,N
1672421775.7,286046999.0,N
1672421795.5,286046998.4,N
1672421815.3,286046998.4,N
1672421835.2,286046999.0,N
1672421855.0,286046996.9,N
1672421855.9,286046996.9,N
1672421875.7,286046996.8,N
1672421895.6,286046997.2,N
1672421915.4,286046997.0,N
1672421935.3,286046997.1,N
1672421955.1,286046996.5,N
1672421956.0,286046996.5,N
1672421975.8,286046996.9,N
1672421995.7,286046997.5,N
1672422015.5,286046995.0,N
1672422035.3,286046998.0,N
1672422055.2,286046995.6,N
1672422075.0,286046995.6,N
1672422075.9,286046995.6,N
1672422095.8,286046998.0,N
1672422115.6,286046995.7,N
1672422135.4,286046995.8,N
1672422155.3,286046995.7,N
1672422175.1,286046998.8,N
1672422195.8,286046996.7,N
1672422215.7,286046997.5,N
1672422235.5,286046996.4,N
1672422255.4,286046996.0,N
1672422275.2,286046993.5,Y
1672422295.0,286046996.7,P
1672422295.9,286046996.7,P
1672422315.8,286046996.6,P
1672422335.6,286046999.3,Y
1672422355.5,286047009.1,P
1672422375.3,286047006.6,N
1672422395.1,286047005.3,N
1672422415.9,286047004.1,N
1672422435.7,286047002.3,N
1672422455.5,286047000.7,N
1672422475.4,286047000.6,N
1672422495.2,286046998.3,N
1672422515.1,286047001.2,N
1672422516.0,286047001.2,N
1672422535.8,286046999.5,N
1672422555.6,286046996.9,N
1672422575.5,286046996.6,N
1672422595.3,286046997.0,N
1672422615.1,286046996.9,N
1672422635.9,286046997.7,N
1672422655.7,286046997.9,N
1672422675.6,286046994.9,N
1672422695.4,286046996.0,N
1672422715.2,286046996.0,N
1672422735.1,286046996.1,N
1672422736.0,286046996.1,N
1672422755.8,286046995.8,N
1672422775.6,286046996.1,N
1672422795.5,286046994.4,N
1672422815.3,286046992.3,N
1672422835.2,286046992.6,N
1672422855.9,286046992.5,N
1672422875.7,286046992.0,N
1672422895.6,286046994.3,N
1672422915.4,286046994.3,N
1672422935.2,286046993.9,N
1672422955.1,286046993.4,N
1672422956.0,286046993.4,N
1672422975.8,286046994.5,N
1672422995.7,286046993.3,N
1672423015.5,286046995.6,N
1672423035.3,286046996.4,N
1672423055.2,286046993.6,N
1672423075.0,286046986.3,Y
1672423075.9,286046992.0,P
1672423095.8,286046999.3,N
1672423115.6,286046999.1,N
1672423135.4,286046999.5,N
1672423155.3,286046998.8,N
1672423175.1,286046998.9,N
1672423195.8,286046998.8,N
